{"data":{"norad_id":63998,"epoch":"2026-05-24T20:54:12.824928Z","epoch_age_seconds":82160,"freshness":"FRESH","line1":"1 63998U 25101E   26144.87098177  .00021125  00000+0  77453-3 0  9997","line2":"2 63998  42.9945 287.9621 0001235 302.4733  57.5999 15.27598355 58702","mean_motion":15.27598355,"eccentricity":0.0001235,"inclination_deg":42.9945,"raan_deg":287.9621,"arg_perigee_deg":302.4733,"mean_anomaly_deg":57.5999,"bstar":0.00077453,"rev_number":5870,"period_min":94.265616042772,"perigee_km":482.14678542162,"apogee_km":483.84148481199,"semimajor_km":6861.1311351168,"source":"CELESTRAK","updated_at":"2026-05-25T13:38:20.217949Z"}}